Location: Newark
(49.3808°N, 3.1844°E)
Time: 09:36:13
(UTC+00:00)

Vanguard 2 Rocket - Pass Details

Date: 23 November 2019
Orbit: 554 x 3326 km, 32.9° (Epoch: 15 December)

Event Time Altitude Azimuth Distance (km) Brightness Sun altitude
Rises 03:07:44 0° 238° (WSW) 2,939 - -38.7°
Reaches altitude 10° 03:11:35 10° 203° (SSW) 2,336 - -38.1°
Maximum altitude 03:13:15 11° 184° (S) 2,399 - -37.9°
Drops below altitude 10° 03:15:06 10° 167° (SSE) 2,690 - -37.6°
Exits shadow 03:16:14 - 158° (SSE) 2,949 9.6 -37.4°
Sets 03:20:48 0° 137° (SE) 4,302 10.7 -36.7°
